[[{"header":{"parameterUnit":"m.s-1","parameterCategory":1,"la1":30.2991,"la2":30.254,"lo1":-89.0895,"lo2":-89.0444,"dy":0.0017,"dx":0.0017,"nx":28,"ny":28,"refTime":"2023-09-20T03:00:00:Z","depth":0,"parameterNumber":2,"parameterNumberName":"U-component_of_WINDS"},"data":[0,0,0,0,0,0,0,0,0,0,0,0,0,0,0,0,0,0,0,0,0,0,0,0,0,0,0,0,0,0,0,0,0,0,0,0,0,0,0,0,0,0,0,0,0,0,0,0,0,0,0,0,0,0,0,0,0,0,-3.8862,-3.8863,0,-3.8992,-3.8994,-3.8995,-3.8961,-3.8958,-3.8955,-3.8953,-3.9086,-3.9091,-3.9097,0,0,0,0,0,0,0,0,0,0,0,0,0,-3.8582,-3.8587,-3.8862,-3.8863,-3.8865,-3.8992,-3.8994,-3.8995,-3.8961,-3.8958,-3.8955,-3.8952,-3.9084,-3.9091,-3.9098,0,0,0,0,0,0,0,0,0,0,0,0,0,-3.8707,-3.8589,-3.8861,-3.8863,-3.8865,-3.8991,-3.8994,-3.8996,-3.8962,-3.8958,-3.8954,-3.895,-3.9081,-3.909,-3.9099,-3.9232,0,0,-3.9126,-3.913,0,0,0,0,0,0,0,0,-3.87,-3.8717,-3.8861,-3.8863,-3.8865,-3.8956,-3.8943,-3.9075,-3.8963,-3.8925,-3.8953,-3.8948,-3.9046,-3.9057,-3.909,-3.9238,-3.9243,-3.9127,-3.9132,-3.9136,-3.9139,0,0,0,0,0,0,0,-3.8691,-3.8711,-3.8913,-3.8863,-3.8866,-3.8857,-3.887,-3.8968,-3.9005,-3.8928,-3.8926,-3.8942,-3.9046,-3.9082,-3.9093,-3.9245,-3.9127,-3.9134,-3.914,-3.9143,-3.9507,-3.9511,0,0,0,0,0,0,-3.8681,-3.8704,-3.8909,-3.8917,-3.8771,-3.8865,-3.888,-3.8931,-3.9004,-3.9012,-3.8945,-3.894,-3.9068,-3.9083,-3.9098,-3.9256,-3.9136,-3.9144,-3.9149,-3.9502,-3.9508,-3.9512,0,0,0,0,0,0,-3.8675,-3.87,-3.8904,-3.881,-3.8836,-3.8874,-3.8931,-3.8935,-3.8971,-3.9017,-3.9023,-3.8975,-3.9066,-3.9085,-3.9198,-3.926,-3.9148,-3.9156,-3.9497,-3.9504,-3.951,-3.9575,0,0,0,0,0,0,-3.8667,-3.8698,-3.8749,-3.8812,-3.8841,-3.9003,-3.8935,-3.8941,-3.8987,-3.8981,-3.9047,-3.9054,-3.9064,-3.9185,-3.9207,-3.927,-3.9163,-3.9492,-3.95,-3.9508,-3.9568,-3.9583,-3.9596,0,0,0,0,0,-3.8658,-3.8762,-3.8752,-3.8777,-3.8906,-3.9006,-3.9023,-3.9033,-3.8992,-3.9043,-3.9073,-3.9052,-3.925,-3.9197,-3.9221,-3.9288,-3.9488,-3.9498,-3.9507,-3.9561,-3.958,-3.9596,0,0,0,0,0,0,-3.8706,-3.8771,-3.876,-3.8888,-3.8942,-3.9,-3.9065,-3.9053,-3.912,-3.9111,-3.9121,-3.9136,-3.9251,-3.9282,-3.9221,-3.942,-3.9363,-3.9378,-3.9396,-3.9414,-3.9428,-3.9417,-3.9171,0,0,0,0,0,-3.8732,-3.8809,-3.8861,-3.8969,-3.8997,-3.9027,-3.9071,-3.9074,-3.913,-3.9153,-3.9191,-3.9246,-3.932,-3.9369,-3.9441,-3.9573,-3.9585,-3.9631,-3.9645,-3.9657,-3.9669,-3.9739,-3.9759,-3.9544,-3.9544,-3.9544,0,0,-3.8785,-3.883,-3.8878,-3.898,-3.9022,-3.9101,-3.9046,-3.9132,-3.919,-3.9166,-3.9274,-3.9304,-3.9366,-3.9489,-3.9545,-3.9517,-3.9731,-3.9669,-3.9678,-3.9684,-3.9751,-3.9771,-3.9789,-3.9551,-3.9549,-3.9548,0,0,-3.8923,-3.8965,-3.9059,-3.9102,-3.9167,-3.9186,-3.9209,-3.9269,-3.9288,-3.9397,-3.938,-3.945,-3.9579,-3.9623,-3.9662,-3.9817,-3.9799,-3.984,-3.9914,-3.9982,-3.9999,-4.0014,-4.0067,-4.0086,-3.9852,-3.9852,-3.9853,0,-3.8981,-3.9099,-3.9109,-3.9196,-3.924,-3.9223,-3.9317,-3.9359,-3.9443,-3.9474,-3.9443,-3.9603,-3.9644,-3.9776,-3.9813,-3.9847,-3.9872,-3.9831,-3.9996,-4.0011,-4.0025,-4.0076,-4.0096,-3.9857,-3.9856,-3.9856,-3.9855,0,-3.9166,-3.9249,-3.9317,-3.9398,-3.9451,-3.9541,-3.9564,-3.9616,-3.9615,-3.9637,-3.9748,-3.9797,-3.9876,-3.9909,-3.9909,-4.004,-4.0021,-3.9993,-3.9936,-4.005,-4.0097,-4.0117,-3.9863,-3.9861,-3.986,-3.9859,0,0,-3.9337,-3.9423,-3.9447,-3.9483,-3.9553,-3.9617,-3.9706,-3.9784,-3.9828,-3.9887,-3.9961,-4.0071,-4.0045,-4.0089,-4.0094,-4.0155,-4.0271,-4.0119,-4.0121,-4.0143,-4.0417,-4.0436,-4.0458,-4.0261,-4.0265,-4.0268,-4.0411,0,-3.9478,-3.9635,-3.9647,-3.9788,-3.9863,-3.9847,-3.9925,-3.9976,-3.9999,-4.0066,-4.0092,-4.0168,-4.0129,-4.0156,-4.0215,-4.0244,-4.0326,-4.0235,-4.0328,-4.0332,-4.0311,-4.0483,-4.0504,-4.0637,-4.043,-4.0433,-4.0435,0,-3.9664,-3.9728,-3.9877,-3.9935,-3.9967,-4.0037,-4.0108,-4.0173,-4.023,-4.0243,-4.0293,-4.0289,-4.038,-4.0321,-4.0446,-4.0384,-4.0423,-4.0443,-4.0449,-4.0456,-4.0389,-4.0493,-4.068,-4.0699,-4.0465,-4.0463,-4.0461,0,-3.9771,-3.9895,-3.9999,-4.0031,-4.0102,-4.0151,-4.0182,-4.0236,-4.0282,-4.0345,-4.0375,-4.0448,-4.0488,-4.0544,-4.056,-4.0516,-4.0684,-4.0626,-4.0695,-4.0695,-4.0729,-4.0726,-4.0922,-4.0759,-4.0759,-4.0758,-4.0758,0,-3.9926,-4.0017,-4.0047,-4.0111,-4.0213,-4.0225,-4.0325,-4.0354,-4.0401,-4.047,-4.0462,-4.0527,-4.0545,-4.0613,-4.0626,-4.0726,-4.0745,-4.0757,-4.0758,-4.0756,-4.0754,-4.078,-4.077,-4.0764,-4.0762,-4.0761,-4.076,0,-4.0062,-4.0086,-4.0198,-4.0256,-4.0272,-4.0344,-4.0393,-4.0455,-4.0477,-4.0564,-4.0585,-4.062,-4.07,-4.0722,-4.0817,-4.0826,-4.0943,-4.0938,-4.0923,-4.0923,-4.0989,-4.0982,-4.1207,-4.1236,-4.1056,-4.1057,-4.1059,0,-4.0158,-4.0228,-4.0293,-4.0338,-4.0372,-4.0445,-4.0492,-4.0507,-4.0556,-4.0626,-4.0678,-4.0757,-4.082,-4.0947,-4.0981,-4.1054,-4.1049,-4.1123,-4.1059,-4.1054,-4.1047,-4.1042,-4.1048,-4.1134,-4.1136,-4.1137,-4.1138,0,-4.0326,-4.0335,-4.0402,-4.0474,-4.053,-4.0587,-4.0642,-4.068,-4.0702,-4.0757,-4.0838,-4.0887,-4.0984,-4.1062,-4.1135,-4.1168,-4.1157,-4.1158,-4.1178,-4.1174,-4.1162,-4.1168,-4.0953,-4.1153,-4.1151,-4.115,-4.1149,-4.1149,-4.0444,-4.0504,-4.0559,-4.0634,-4.0677,-4.0728,-4.0788,-4.0817,-4.0885,-4.0965,-4.097,-4.1057,-4.1112,-4.1209,-4.1246,-4.1314,-4.1292,-4.132,-4.1327,-4.1334,-4.1338,-4.1154,-4.1328,-4.1327,-4.1327,-4.1327,-4.1326,0,-4.061,-4.0644,-4.0713,-4.079,-4.0848,-4.0834,-4.0893,-4.0943,-4.102,-4.1072,-4.1134,-4.1227,-4.1302,-4.1341,-4.1416,-4.1462,-4.1459,-4.1481,-4.1477,-4.1484,-4.1355,-4.1329,-4.1483,-4.1482,-4.1482,-4.1482,-4.1482,-4.1482,-4.0703,-4.0803,-4.0818,-4.0939,-4.0973,-4.1058,-4.1093,-4.114,-4.1181,-4.1284,-4.1346,-4.1372,-4.1419,-4.1496,-4.1564,-4.1574,-4.16,-4.1625,-4.1632,-4.1509,-4.1493,-4.1478,-4.1454,-4.1631,-4.1631,-4.1755,-4.1756,-4.1757]},{"header":{"parameterUnit":"m.s-1","parameterCategory":1,"la1":30.2991,"la2":30.254,"lo1":-89.0895,"lo2":-89.0444,"dy":0.0017,"dx":0.0017,"nx":28,"ny":28,"refTime":"2023-09-20T03:00:00:Z","depth":0,"parameterNumber":3,"parameterNumberName":"V-component_of_WINDS"},"data":[0,0,0,0,0,0,0,0,0,0,0,0,0,0,0,0,0,0,0,0,0,0,0,0,0,0,0,0,0,0,0,0,0,0,0,0,0,0,0,0,0,0,0,0,0,0,0,0,0,0,0,0,0,0,0,0,0,0,3.1895,3.1895,0,3.1901,3.1901,3.1901,3.1854,3.1853,3.1852,3.185,3.1856,3.1857,3.1859,0,0,0,0,0,0,0,0,0,0,0,0,0,3.1841,3.1842,3.1895,3.1895,3.1895,3.1901,3.1901,3.1901,3.1854,3.1853,3.1851,3.185,3.1856,3.1857,3.1859,0,0,0,0,0,0,0,0,0,0,0,0,0,3.1857,3.1843,3.1895,3.1872,3.187,3.1901,3.1901,3.1901,3.1855,3.1853,3.1851,3.1849,3.1855,3.1857,3.1859,3.1911,0,0,3.1865,3.1866,0,0,0,0,0,0,0,0,3.1857,3.1859,3.1875,3.1874,3.1872,3.1875,3.1884,3.1904,3.1855,3.1861,3.185,3.1848,3.1864,3.1865,3.187,3.1911,3.1912,3.1866,3.1867,3.1868,3.1868,0,0,0,0,0,0,0,3.1855,3.1859,3.1897,3.1876,3.1873,3.1861,3.1862,3.1888,3.1873,3.186,3.1857,3.1858,3.1862,3.1869,3.187,3.1912,3.1865,3.1867,3.1869,3.1869,3.1994,3.1995,0,0,0,0,0,0,3.1857,3.1858,3.1897,3.1897,3.1859,3.1864,3.1864,3.1876,3.1873,3.187,3.186,3.1856,3.1866,3.1868,3.187,3.1929,3.1868,3.187,3.1871,3.1991,3.1994,3.1996,0,0,0,0,0,0,3.1857,3.1861,3.1897,3.1877,3.188,3.1867,3.188,3.1877,3.1883,3.1873,3.187,3.1869,3.1865,3.1867,3.1901,3.1928,3.187,3.1872,3.1989,3.1992,3.1995,3.2047,0,0,0,0,0,0,3.1855,3.1861,3.1881,3.1878,3.1882,3.1927,3.1882,3.1878,3.1887,3.1882,3.188,3.1878,3.1863,3.1898,3.1903,3.193,3.1874,3.1986,3.199,3.1994,3.2043,3.2052,3.2059,0,0,0,0,0,3.1853,3.1896,3.1882,3.1887,3.1906,3.1929,3.1931,3.1914,3.1889,3.1908,3.1902,3.1878,3.1925,3.1902,3.1907,3.1935,3.1985,3.1989,3.1994,3.2039,3.205,3.2059,0,0,0,0,0,0,3.1903,3.1895,3.188,3.1923,3.1927,3.1921,3.1945,3.1926,3.1937,3.1932,3.1909,3.1909,3.1946,3.1945,3.1918,3.1984,3.1951,3.1956,3.1983,3.1993,3.2002,3.1999,3.1876,0,0,0,0,0,3.1919,3.1938,3.193,3.1969,3.1972,3.1958,3.1968,3.1954,3.1957,3.1958,3.1954,3.1958,3.1973,3.1984,3.1998,3.2044,3.2041,3.2066,3.2074,3.2081,3.2085,3.2107,3.2117,3.2011,3.2011,3.2011,0,0,3.1951,3.195,3.1963,3.1979,3.198,3.2,3.196,3.1983,3.1997,3.1962,3.1992,3.199,3.1993,3.2032,3.2049,3.2032,3.2114,3.2087,3.2092,3.2093,3.2113,3.2122,3.2131,3.2015,3.2014,3.2014,0,0,3.202,3.2022,3.2053,3.2056,3.2059,3.2049,3.2057,3.2054,3.2051,3.2082,3.2055,3.2072,3.21,3.2102,3.2107,3.2178,3.2155,3.2183,3.2224,3.2246,3.2254,3.2261,3.2284,3.2292,3.2188,3.2188,3.2189,0,3.206,3.2089,3.2071,3.2095,3.2102,3.2072,3.2102,3.2106,3.2114,3.2119,3.21,3.2133,3.2133,3.2171,3.2188,3.2195,3.2201,3.2181,3.2255,3.2262,3.2268,3.2289,3.2298,3.2191,3.2191,3.2191,3.2191,0,3.2136,3.2157,3.2182,3.2189,3.2199,3.2227,3.2212,3.2225,3.2211,3.2204,3.2234,3.2234,3.2246,3.2255,3.2242,3.2291,3.228,3.2259,3.2223,3.2281,3.23,3.2309,3.2196,3.2195,3.2194,3.2193,0,0,3.2234,3.2232,3.2241,3.2243,3.2245,3.226,3.2286,3.2298,3.2308,3.2315,3.2334,3.2359,3.2339,3.2345,3.2332,3.2351,3.2404,3.2327,3.2327,3.2338,3.2455,3.2469,3.2478,3.2391,3.2392,3.2393,3.2454,0,3.2298,3.2342,3.2327,3.2371,3.2388,3.2361,3.2383,3.2386,3.2381,3.2395,3.2389,3.2405,3.2379,3.2382,3.24,3.2393,3.2426,3.2389,3.2407,3.2407,3.2403,3.2489,3.2503,3.256,3.2462,3.2463,3.2464,0,3.2379,3.2388,3.2434,3.2431,3.2438,3.2458,3.2467,3.2482,3.2485,3.2479,3.2486,3.2469,3.2493,3.2461,3.2493,3.2469,3.2475,3.2473,3.2475,3.2473,3.2436,3.2486,3.2578,3.2586,3.2476,3.2475,3.2474,0,3.2441,3.2466,3.2495,3.2499,3.2497,3.2512,3.2512,3.2513,3.2521,3.253,3.2534,3.2546,3.2551,3.2561,3.2547,3.2525,3.258,3.2548,3.2575,3.2575,3.2584,3.2583,3.2676,3.2595,3.2595,3.2595,3.2595,0,3.2513,3.2541,3.2523,3.2541,3.2572,3.2555,3.2585,3.2582,3.2584,3.26,3.2578,3.2594,3.2576,3.259,3.258,3.2607,3.2611,3.2606,3.2602,3.2606,3.2606,3.2607,3.2601,3.2597,3.2596,3.2596,3.2596,0,3.2586,3.2576,3.2606,3.2602,3.2602,3.2624,3.2621,3.2637,3.263,3.2651,3.2655,3.2645,3.266,3.2648,3.2664,3.2657,3.2691,3.2684,3.269,3.2686,3.2713,3.2709,3.2806,3.2817,3.2733,3.2734,3.2734,0,3.263,3.2651,3.265,3.2659,3.266,3.2676,3.2684,3.2669,3.2678,3.2682,3.2698,3.2711,3.2721,3.2747,3.274,3.2751,3.2742,3.2775,3.2743,3.2746,3.2738,3.2736,3.2737,3.2781,3.2782,3.2782,3.2783,0,3.2709,3.2703,3.2715,3.2726,3.2735,3.2743,3.2749,3.2758,3.2742,3.2753,3.2768,3.2776,3.2792,3.2805,3.2814,3.2813,3.2795,3.2794,3.28,3.2802,3.2803,3.28,3.2704,3.2791,3.279,3.2789,3.2789,3.2789,3.2767,3.2784,3.2785,3.2799,3.2802,3.2807,3.2821,3.2817,3.2829,3.284,3.2831,3.2849,3.2851,3.2861,3.2863,3.2877,3.2863,3.2873,3.2874,3.2876,3.2878,3.2804,3.2879,3.2879,3.2878,3.2878,3.2878,0,3.2842,3.2842,3.2855,3.2863,3.2874,3.2857,3.2863,3.2872,3.2888,3.2892,3.2902,3.2919,3.2932,3.2927,3.2938,3.2949,3.2941,3.2952,3.2949,3.2949,3.2892,3.2884,3.2959,3.2959,3.2958,3.2958,3.2958,3.2958,3.2882,3.2908,3.2902,3.2929,3.2929,3.2946,3.295,3.2955,3.2957,3.2977,3.2987,3.2984,3.2984,3.2995,3.3005,3.3004,3.3007,3.3021,3.3016,3.2962,3.2953,3.2946,3.2938,3.3023,3.3023,3.3071,3.3072,3.3072]}]]